TimeAST,TemperatureF,Dew PointF,Humidity,Sea Level PressureIn,VisibilityMPH,Wind Direction,Wind SpeedMPH,Gust SpeedMPH,PrecipitationIn,Events,Conditions,WindDirDegrees,DateUTC
12:00 AM,78.8,73.4,83,29.92,6.2,Calm,Calm,-,N/A,,Scattered Clouds,0,2013-10-17 04:00:00
1:00 AM,78.8,73.4,83,29.89,6.2,Calm,Calm,-,N/A,,Mostly Cloudy,0,2013-10-17 05:00:00
2:00 AM,77,74,87,29.89,19,Calm,Calm,,,,Scattered Clouds,,2013-10-17 06:00:00
2:00 AM,77.0,73.4,89,29.89,6.2,Calm,Calm,-,N/A,,Partly Cloudy,0,2013-10-17 06:00:00
3:00 AM,77.0,73.4,89,29.89,6.2,Calm,Calm,-,N/A,,Partly Cloudy,0,2013-10-17 07:00:00
4:00 AM,77.0,73.4,89,29.89,6.2,Calm,Calm,-,N/A,,Partly Cloudy,0,2013-10-17 08:00:00
5:00 AM,77,74,88,29.90,19,Calm,Calm,,,,Scattered Clouds,,2013-10-17 09:00:00
5:00 AM,77.0,73.4,89,29.89,6.2,Calm,Calm,-,N/A,,Partly Cloudy,0,2013-10-17 09:00:00
6:00 AM,77.0,73.4,89,29.89,6.2,Calm,Calm,-,N/A,,Partly Cloudy,0,2013-10-17 10:00:00
7:00 AM,78.8,75.2,89,29.92,6.2,Calm,Calm,-,N/A,,Partly Cloudy,0,2013-10-17 11:00:00
8:00 AM,84,76,72,29.94,19,,1.2,,,,Scattered Clouds,,2013-10-17 12:00:00
8:00 AM,84.2,77.0,79,29.92,6.2,Variable,1.2,-,N/A,,Partly Cloudy,0,2013-10-17 12:00:00
9:00 AM,86.0,75.2,70,29.95,6.2,ESE,3.5,-,N/A,,Partly Cloudy,110,2013-10-17 13:00:00
10:00 AM,87.8,73.4,62,29.95,6.2,East,5.8,-,N/A,,Partly Cloudy,80,2013-10-17 14:00:00
11:00 AM,87,74,56,29.95,6,ENE,9.2,,,,Partly Cloudy,70,2013-10-17 15:00:00
11:00 AM,87.8,73.4,62,29.95,6.2,ENE,9.2,-,N/A,,Partly Cloudy,70,2013-10-17 15:00:00
11:06 AM,86.0,75.2,70,-9999,6.2,ENE,9.2,-,N/A,Thunderstorm,Thunderstorm,70,2013-10-17 15:06:00
12:00 PM,86.0,77.0,74,29.92,6.2,Variable,2.3,-,N/A,Rain,Light Rain Showers,0,2013-10-17 16:00:00
1:00 PM,80.6,75.2,84,29.92,6.2,Variable,2.3,-,N/A,Rain,Light Rain Showers,0,2013-10-17 17:00:00
2:00 PM,80,76,83,29.90,15,WSW,4.6,,,Rain,Light Rain Showers,240,2013-10-17 18:00:00
2:00 PM,80.6,75.2,84,29.89,6.2,WSW,4.6,-,N/A,,Scattered Clouds,240,2013-10-17 18:00:00
3:00 PM,84.2,77.0,79,29.89,6.2,Variable,1.2,-,N/A,,Scattered Clouds,0,2013-10-17 19:00:00
4:00 PM,86.0,75.2,70,29.89,6.2,SE,3.5,-,N/A,,Scattered Clouds,130,2013-10-17 20:00:00
5:00 PM,84,74,66,29.89,19,East,3.5,,,,Scattered Clouds,90,2013-10-17 21:00:00
5:00 PM,84.2,75.2,74,29.89,6.2,East,3.5,-,N/A,,Partly Cloudy,90,2013-10-17 21:00:00
6:00 PM,80.6,75.2,84,29.89,6.2,Variable,1.2,-,N/A,,Partly Cloudy,0,2013-10-17 22:00:00
7:00 PM,78.8,75.2,89,29.89,6.2,Variable,1.2,-,N/A,,Mostly Cloudy,0,2013-10-17 23:00:00
8:00 PM,79,74,81,29.93,19,,1.2,,,,Partly Cloudy,,2013-10-18 00:00:00
8:00 PM,78.8,75.2,89,29.92,6.2,Variable,1.2,-,N/A,,Scattered Clouds,0,2013-10-18 00:00:00
9:00 PM,78.8,75.2,89,29.95,6.2,Calm,Calm,-,N/A,,Scattered Clouds,0,2013-10-18 01:00:00
10:00 PM,78.8,75.2,89,29.95,6.2,Calm,Calm,-,N/A,,Partly Cloudy,0,2013-10-18 02:00:00
11:00 PM,77.0,73.4,89,29.92,6.2,Variable,1.2,-,N/A,,Partly Cloudy,0,2013-10-18 03:00:00